Location: Fort Worth, Tx
(32.7431°N, 97.3695°W)
Time: 05:04:07
(UTC-04:00)

Vanguard 3 - Pass Details

Date: 01 March 2024
Orbit: 510 x 3234 km, 33.3° (Epoch: 24 April)

Event Time Altitude Azimuth Distance (km) Brightness Sun altitude
Rises 20:21:47 0° 243° (WSW) 5,912 12.8 -12.2°
Reaches altitude 10° 20:25:10 10° 242° (WSW) 5,190 12.3 -13.0°
Maximum altitude 20:42:04 78° 159° (SSE) 3,220 10.0 -16.5°
Enters shadow 20:57:25 22° 79° (E) 5,091 10.6 -19.7°
